Weather History for Point Pleasant, WV

Change the Weather History Date:

Friday, February 22, 2013

  Actual Average (KHTS) Record (KHTS)
Temperature  
Mean Temperature 46 °F 39 °F  
Max Temperature 59 °F 49 °F 75 °F (1971)
Min Temperature 32 °F 29 °F -5 °F (1968)
Degree Days  
Heating Degree Days 20 26  
Month to date heating degree days 626  
Since 1 July heating degree days 3350  
Cooling Degree Days 0 0  
Month to date cooling degree days 0  
Year to date cooling degree days 0  
Moisture  
Dew Point 36 °F    
Average Humidity 84    
Maximum Humidity 100    
Minimum Humidity 60    
Precipitation  
Precipitation 0.00 in 0.12 in 0.98 in (2003)
Month to date precipitation 2.38  
Year to date precipitation 5.35  
Snow  
Snow 0.00 in - - ()
Month to date snowfall  
Since 1 September snowfall  
Snow Depth -    
Sea Level Pressure  
Sea Level Pressure 30.01 in    
Wind  
Wind Speed 5 mph (East)    
Max Wind Speed 12 mph    
Max Gust Speed 16 mph    
Visibility 9 miles    
Events Snow    
T = Trace of Precipitation, MM = Missing Value Source: NWS Daily Summary

Daily Weather History Graph

Daily Weather History Graph

Search for Another Location

Airport:

Trip Planner

Search our weather history database for the weather conditions in past years. The results will help you decide how hot, cold, wet, or windy it might be!

Date:

Astronomy

Feb. 22, 2013 Rise Set
Actual Time 7:10 AM EST 6:13 PM EST
Civil Twilight 6:43 AM EST 6:40 PM EST
Nautical Twilight 6:12 AM EST 7:11 PM EST
Astronomical Twilight 5:41 AM EST 7:42 PM EST
Moon 3:25 PM EST (2/22) 4:53 AM EST (2/22)
Length of Visible Light 11h 57m
Length of Day
11h 03m
Waxing Gibbous, 90% of the Moon is Illuminated
Feb 22
Waxing Gibbous
Feb 25
Full
Mar 4
Last Quarter
Mar 11
New
Mar 19
First Quarter

Hourly Weather History & Observations

Time (EST) Temp. Windchill Dew Point Humidity Pressure Visibility Wind Dir Wind Speed Gust Speed Precip Events Conditions
12:15 AM 32.0 °F 24.8 °F 19.4 °F 60% 30.19 in 10.0 mi ENE 8.1 mph - N/A   Clear
12:35 AM 32.0 °F 27.5 °F 19.4 °F 60% 30.19 in 10.0 mi ENE 4.6 mph - N/A   Clear
12:55 AM 32.0 °F 26.4 °F 21.2 °F 64% 30.20 in 10.0 mi ENE 5.8 mph - N/A   Clear
1:15 AM 32.0 °F 28.7 °F 21.2 °F 64% 30.21 in 10.0 mi ESE 3.5 mph - N/A   Clear
1:35 AM 32.0 °F 24.2 °F 23.0 °F 69% 30.16 in 10.0 mi East 9.2 mph - N/A Snow Light Snow
1:55 AM 32.0 °F 23.6 °F 24.8 °F 75% 30.10 in 10.0 mi East 10.4 mph - N/A   Mostly Cloudy
2:15 AM 32.0 °F 24.2 °F 24.8 °F 75% 30.12 in 10.0 mi East 9.2 mph - N/A   Overcast
2:35 AM 32.0 °F 24.2 °F 26.6 °F 80% 30.11 in 7.0 mi East 9.2 mph - N/A   Overcast
2:55 AM 32.0 °F 28.7 °F 26.6 °F 80% 30.11 in 7.0 mi East 3.5 mph - N/A   Overcast
3:15 AM 32.0 °F 28.7 °F 26.6 °F 80% 30.11 in 10.0 mi East 3.5 mph - N/A   Overcast
3:35 AM 32.0 °F 28.7 °F 28.4 °F 87% 30.10 in 5.0 mi East 3.5 mph - N/A   Overcast
3:55 AM 32.0 °F 26.4 °F 28.4 °F 87% 30.08 in 10.0 mi ENE 5.8 mph - N/A   Overcast
4:15 AM 32.0 °F 26.4 °F 28.4 °F 87% 30.06 in 10.0 mi ENE 5.8 mph - N/A   Overcast
4:35 AM 32.0 °F 24.2 °F 28.4 °F 87% 30.04 in 10.0 mi East 9.2 mph - N/A   Mostly Cloudy
4:55 AM 32.0 °F 26.4 °F 28.4 °F 87% 30.03 in 10.0 mi East 5.8 mph - N/A   Mostly Cloudy
5:15 AM 32.0 °F 27.5 °F 30.2 °F 93% 30.02 in 7.0 mi East 4.6 mph - N/A   Overcast
5:35 AM 32.0 °F 25.6 °F 30.2 °F 93% 30.01 in 7.0 mi East 6.9 mph - N/A   Overcast
5:55 AM 32.0 °F 27.5 °F 30.2 °F 93% 30.01 in 10.0 mi ENE 4.6 mph - N/A   Overcast
6:15 AM 32.0 °F 28.7 °F 30.2 °F 93% 30.01 in 10.0 mi ENE 3.5 mph - N/A   Mostly Cloudy
6:35 AM 33.8 °F 30.8 °F 32.0 °F 93% 30.01 in 5.0 mi East 3.5 mph - N/A   Mostly Cloudy
6:55 AM 32.0 °F 27.5 °F 32.0 °F 100% 29.99 in 7.0 mi ENE 4.6 mph - N/A   Overcast
7:15 AM 33.8 °F 29.6 °F 32.0 °F 93% 29.99 in 10.0 mi East 4.6 mph - N/A   Overcast
7:35 AM 33.8 °F 29.6 °F 32.0 °F 93% 29.99 in 7.0 mi East 4.6 mph - N/A   Overcast
7:55 AM 33.8 °F 30.8 °F 32.0 °F 93% 29.99 in 10.0 mi East 3.5 mph - N/A   Overcast
8:15 AM 33.8 °F - 32.0 °F 93% 30.00 in 4.0 mi Calm Calm - N/A   Overcast
8:35 AM 33.8 °F 30.8 °F 32.0 °F 93% 30.00 in 10.0 mi ENE 3.5 mph - N/A   Mostly Cloudy
8:55 AM 33.8 °F - 32.0 °F 93% 30.00 in 7.0 mi Calm Calm - N/A   Overcast
9:15 AM 33.8 °F - 32.0 °F 93% 30.00 in 7.0 mi Calm Calm - N/A   Overcast
9:35 AM 33.8 °F - 33.8 °F 100% 29.99 in 7.0 mi Calm Calm - N/A   Overcast
9:55 AM 35.6 °F - 33.8 °F 93% 29.99 in 7.0 mi Calm Calm - N/A   Overcast
10:15 AM 35.6 °F - 33.8 °F 93% 30.00 in 7.0 mi Calm Calm - N/A   Overcast
10:35 AM 35.6 °F - 33.8 °F 93% 30.00 in 10.0 mi Calm Calm - N/A   Overcast
11:15 AM 37.4 °F - 35.6 °F 93% 30.00 in 10.0 mi Calm Calm - N/A   Mostly Cloudy
11:35 AM 41.0 °F - 39.2 °F 93% 29.99 in 10.0 mi Calm Calm - N/A   Mostly Cloudy
11:55 AM 42.8 °F - 41.0 °F 93% 29.99 in 10.0 mi Calm Calm - N/A   Scattered Clouds
12:15 PM 42.8 °F - 41.0 °F 93% 29.99 in 10.0 mi Calm Calm - N/A   Mostly Cloudy
12:35 PM 44.6 °F - 42.8 °F 93% 29.98 in 10.0 mi Calm Calm - N/A   Scattered Clouds
12:55 PM 46.4 °F - 42.8 °F 87% 29.97 in 10.0 mi Calm Calm - N/A   Scattered Clouds
1:15 PM 50.0 °F - 44.6 °F 82% 29.97 in 10.0 mi Calm Calm - N/A   Scattered Clouds
1:35 PM 50.0 °F - 44.6 °F 82% 29.96 in 10.0 mi Calm Calm - N/A   Scattered Clouds
1:55 PM 51.8 °F - 44.6 °F 76% 29.96 in 10.0 mi West 3.5 mph - N/A   Mostly Cloudy
2:15 PM 51.8 °F - 44.6 °F 76% 29.96 in 10.0 mi SW 5.8 mph - N/A   Mostly Cloudy
2:35 PM 53.6 °F - 44.6 °F 72% 29.96 in 10.0 mi SSW 6.9 mph - N/A   Mostly Cloudy
2:55 PM 55.4 °F - 46.4 °F 72% 29.95 in 10.0 mi SW 6.9 mph - N/A   Scattered Clouds
3:15 PM 55.4 °F - 46.4 °F 72% 29.95 in 10.0 mi SW 8.1 mph - N/A   Scattered Clouds
3:35 PM 59.0 °F - 46.4 °F 63% 29.94 in 10.0 mi SW 9.2 mph - N/A   Scattered Clouds
3:55 PM 59.0 °F - 46.4 °F 63% 29.94 in 10.0 mi SW 8.1 mph - N/A   Scattered Clouds
4:15 PM 59.0 °F - 46.4 °F 63% 29.94 in 10.0 mi SSW 10.4 mph 16.1 mph N/A   Scattered Clouds
4:35 PM 59.0 °F - 46.4 °F 63% 29.94 in 10.0 mi SW 11.5 mph - N/A   Clear
4:55 PM 59.0 °F - 46.4 °F 63% 29.93 in 10.0 mi SW 9.2 mph - N/A   Clear
5:15 PM 59.0 °F - 46.4 °F 63% 29.93 in 10.0 mi SW 6.9 mph - N/A   Clear
5:35 PM 59.0 °F - 46.4 °F 63% 29.92 in 10.0 mi SW 5.8 mph - N/A   Clear
5:55 PM 53.6 °F - 44.6 °F 72% 29.94 in 10.0 mi NW 3.5 mph - N/A   Scattered Clouds
6:15 PM 50.0 °F - 42.8 °F 76% 29.94 in 10.0 mi Calm Calm - N/A   Scattered Clouds
6:35 PM 48.2 °F - 42.8 °F 82% 29.96 in 10.0 mi North 3.5 mph - N/A   Clear
6:55 PM 46.4 °F - 42.8 °F 87% 29.97 in 10.0 mi Calm Calm - N/A   Clear
7:15 PM 44.6 °F - 42.8 °F 93% 29.98 in 10.0 mi Calm Calm - N/A   Scattered Clouds
7:35 PM 44.6 °F - 42.8 °F 93% 29.99 in 10.0 mi Calm Calm - N/A   Mostly Cloudy
7:55 PM 44.6 °F - 41.0 °F 87% 29.98 in 10.0 mi Calm Calm - N/A   Overcast
8:15 PM 44.6 °F - 41.0 °F 87% 29.98 in 10.0 mi Calm Calm - N/A   Mostly Cloudy
8:35 PM 44.6 °F - 41.0 °F 87% 29.99 in 10.0 mi Calm Calm - N/A   Scattered Clouds
8:55 PM 44.6 °F - 41.0 °F 87% 29.99 in 7.0 mi Calm Calm - N/A   Mostly Cloudy
9:15 PM 42.8 °F - 41.0 °F 93% 29.99 in 7.0 mi Calm Calm - N/A   Overcast
9:35 PM 42.8 °F - 41.0 °F 93% 30.00 in 10.0 mi Calm Calm - N/A   Overcast
9:55 PM 42.8 °F - 41.0 °F 93% 30.01 in 10.0 mi Calm Calm - N/A   Overcast
10:15 PM 42.8 °F - 41.0 °F 93% 30.00 in 7.0 mi Calm Calm - N/A   Overcast
10:35 PM 42.8 °F - 41.0 °F 93% 30.00 in 10.0 mi Calm Calm - N/A   Overcast
10:55 PM 42.8 °F - 39.2 °F 87% 30.01 in 10.0 mi Calm Calm - N/A   Mostly Cloudy
11:15 PM 41.0 °F - 39.2 °F 93% 30.00 in 7.0 mi Calm Calm - N/A   Overcast
11:35 PM 41.0 °F - 37.4 °F 87% 29.99 in 7.0 mi Calm Calm - N/A   Scattered Clouds
11:55 PM 41.0 °F - 37.4 °F 87% 29.99 in 5.0 mi Calm Calm - N/A   Scattered Clouds